カタログに戻る

SL-6 R/B(2)

運用中HEO
NORAD 13882·ROCKET BODY·🇷🇺 Russia

打ち上げ Mar 11, 1983 から Plesetsk Cosmodrome

Loading…

次のパス (今後24時間)

TLE

最新Source: Space-Track

元期: Sep 13, 2026, 19:29 UTC

1 13882U 83015E   26256.81225610 -.00000318  00000-0 -22778-2 0  9997
2 13882  62.0189 209.1525 7155170 270.4203  15.5368  1.96884429312698

AllMySatでSL-6 R/B(2)をリアルタイム追跡

Download on the App Store